Погода в Крестцах

Россия / Новгородская область     58°14′48″N   32°30′48″E
темп.,
°C
ветер,
м/с
пор.,
м/с
влажн.,
%
обл.,
%
осадки,
мм/ч
давл.,
гПа
погр.,
м
6 марта, сб
сб600:00−7зсз268653 0.0 1016161
03:00−7зсз269276 0.1 1017289
06:00−9зсз249879 0.0 1016132
09:00−8з259180 0.1 1017279
12:00−4з357380 0.0 1016770
15:00−2юз475958 0.0 10131274
18:00−4ююз4106555 0.0 10091041
21:00−4ююз7149178 0.3 10041251
7 марта, вс
вс700:00−2юз71495100 2.3 9971187
03:00−2юз71495100 4.4 9931133
06:00−1зсз5995100 3.5 990801
09:00−4з3779100 5.0 989780
12:00−4зсз6115998 0.6 9911781
15:00−4з476879 0.9 9921247
18:00−6зсз378599 0.4 992330
21:00−9с2789100 0.4 994189
8 марта, пн
пн800:00−10ссз399496 0.0 996335
03:00−9сз5119392 0.1 999718
06:00−9ссз51089100 0.6 1001788
09:00−11с51087100 0.6 1005649
12:00−9ссз4783100 0.1 1008722
15:00−8ссз4781100 0.1 1010745
18:00−10ссз388682 0.0 1012592
21:00−14с399487 0.0 1015437
9 марта, вт
вт900:00−16с269793 0.0 1017196
03:00−18ссз229991 0.1 101856
06:00−19с129872 0.0 101924
09:00−18ссв129055 0.0 1021142
12:00−12ссз127465 0.0 1021506
15:00−10ссз226559 0.0 1021819
18:00−12св1279100 0.0 102042
21:00−16в3787100 0.0 1021160
10 марта, ср
ср1000:00−17в498623 0.0 1022259
03:00−19вюв398711 0.0 1023251
06:00−20в27890 0.0 1024151
09:00−18в36780 0.0 1026227
12:00−12вюв35700 0.0 1026456
15:00−9вюв356633 0.0 1025786
18:00−11вюв268121 0.0 1025193
21:00−15юв398817 0.0 1025216